Time,TemperatureF,DewpointF,PressureIn,WindDirection,WindDirectionDegrees,WindSpeedMPH,WindSpeedGustMPH,Humidity,HourlyPrecipIn,Conditions,Clouds,dailyrainin,SolarRadiationWatts/m^2,SoftwareType,DateUTC
2013-12-03 00:02:00,44.2,35.8,29.89,SE,141,0.0,0.0,72,0.00,,,0.00,0.0,meteohub,2013-12-03 05:02:00,
2013-12-03 00:12:00,44.2,35.8,29.89,SE,141,0.0,0.0,72,0.00,,,0.00,0.0,meteohub,2013-12-03 05:12:00,
2013-12-03 00:22:00,44.2,35.4,29.89,SE,141,0.0,1.0,71,0.00,,,0.00,0.0,meteohub,2013-12-03 05:22:00,
2013-12-03 00:32:00,44.2,35.4,29.90,SE,141,0.0,1.0,71,0.00,,,0.00,0.0,meteohub,2013-12-03 05:32:00,
2013-12-03 00:42:00,44.4,35.6,29.89,SE,141,0.0,1.0,71,0.00,,,0.00,0.0,meteohub,2013-12-03 05:42:00,
2013-12-03 00:52:00,44.4,35.6,29.89,SE,141,0.0,1.0,71,0.00,,,0.00,0.0,meteohub,2013-12-03 05:52:00,
2013-12-03 01:02:00,44.1,35.6,29.90,SE,141,0.0,2.0,72,0.00,,,0.00,0.0,meteohub,2013-12-03 06:02:00,
2013-12-03 01:12:00,43.9,35.8,29.90,SE,141,0.0,2.0,73,0.00,,,0.00,0.0,meteohub,2013-12-03 06:12:00,
2013-12-03 01:22:00,43.9,35.8,29.90,SE,141,0.0,0.0,73,0.00,,,0.00,0.0,meteohub,2013-12-03 06:22:00,
2013-12-03 01:32:00,43.7,36.0,29.90,SE,141,0.0,0.0,74,0.00,,,0.00,0.0,meteohub,2013-12-03 06:32:00,
2013-12-03 01:42:00,43.5,35.8,29.90,SE,141,0.0,0.0,74,0.00,,,0.00,0.0,meteohub,2013-12-03 06:42:00,
2013-12-03 01:52:00,43.3,36.0,29.90,SE,141,0.0,0.0,75,0.00,,,0.00,0.0,meteohub,2013-12-03 06:52:00,
2013-12-03 02:02:00,43.3,36.3,29.90,SE,141,0.0,0.0,76,0.00,,,0.00,0.0,meteohub,2013-12-03 07:02:00,
2013-12-03 02:12:00,43.3,36.3,29.90,SE,141,0.0,0.0,76,0.00,,,0.00,0.0,meteohub,2013-12-03 07:12:00,
2013-12-03 02:22:00,43.0,36.0,29.90,SE,141,0.0,0.0,76,0.00,,,0.00,0.0,meteohub,2013-12-03 07:22:00,
2013-12-03 02:32:00,43.0,36.3,29.90,SE,141,0.0,0.0,77,0.00,,,0.00,0.0,meteohub,2013-12-03 07:32:00,
2013-12-03 02:42:00,42.8,36.1,29.91,SE,141,0.0,0.0,77,0.00,,,0.00,0.0,meteohub,2013-12-03 07:42:00,
2013-12-03 02:52:00,42.4,36.1,29.91,SE,141,0.0,0.0,78,0.00,,,0.00,0.0,meteohub,2013-12-03 07:52:00,
2013-12-03 03:02:00,42.4,36.1,29.91,SE,141,0.0,0.0,78,0.00,,,0.00,0.0,meteohub,2013-12-03 08:02:00,
2013-12-03 03:12:00,42.3,36.0,29.90,SE,141,0.0,0.0,78,0.00,,,0.00,0.0,meteohub,2013-12-03 08:12:00,
2013-12-03 03:22:00,41.7,35.8,29.90,SE,141,0.0,0.0,79,0.00,,,0.00,0.0,meteohub,2013-12-03 08:22:00,
2013-12-03 03:32:00,41.4,35.6,29.91,SE,141,0.0,0.0,80,0.00,,,0.00,0.0,meteohub,2013-12-03 08:32:00,
2013-12-03 03:42:00,41.0,35.2,29.91,SE,141,0.0,0.0,80,0.00,,,0.00,0.0,meteohub,2013-12-03 08:42:00,
2013-12-03 03:52:00,41.0,35.6,29.90,SE,141,0.0,0.0,81,0.00,,,0.00,0.0,meteohub,2013-12-03 08:52:00,
2013-12-03 04:02:00,40.8,35.4,29.90,SE,141,0.0,0.0,81,0.00,,,0.00,0.0,meteohub,2013-12-03 09:02:00,
2013-12-03 04:12:00,40.8,35.4,29.90,SE,141,0.0,0.0,81,0.00,,,0.00,0.0,meteohub,2013-12-03 09:12:00,
2013-12-03 04:22:00,40.5,35.4,29.90,SE,141,0.0,0.0,82,0.00,,,0.00,0.0,meteohub,2013-12-03 09:22:00,
2013-12-03 04:32:00,40.5,35.4,29.90,SE,141,0.0,0.0,82,0.00,,,0.00,0.0,meteohub,2013-12-03 09:32:00,
2013-12-03 04:42:00,40.6,35.6,29.90,SE,141,0.0,0.0,82,0.00,,,0.00,0.0,meteohub,2013-12-03 09:42:00,
2013-12-03 04:52:00,41.0,36.0,29.90,SE,141,0.0,0.0,82,0.00,,,0.00,0.0,meteohub,2013-12-03 09:52:00,
2013-12-03 05:02:00,41.0,35.6,29.90,SE,141,0.0,0.0,81,0.00,,,0.00,0.0,meteohub,2013-12-03 10:02:00,
2013-12-03 05:12:00,41.0,36.0,29.91,SE,141,0.0,0.0,82,0.00,,,0.00,0.0,meteohub,2013-12-03 10:12:00,
2013-12-03 05:22:00,41.2,36.1,29.91,SE,141,0.0,0.0,82,0.00,,,0.00,0.0,meteohub,2013-12-03 10:22:00,
2013-12-03 05:32:00,41.4,36.0,29.91,SE,141,0.0,0.0,81,0.00,,,0.00,0.0,meteohub,2013-12-03 10:32:00,
2013-12-03 05:42:00,41.5,36.1,29.91,SE,141,0.0,0.0,81,0.00,,,0.00,0.0,meteohub,2013-12-03 10:42:00,
2013-12-03 05:52:00,41.4,36.0,29.91,SE,141,0.0,0.0,81,0.00,,,0.00,0.0,meteohub,2013-12-03 10:52:00,
2013-12-03 06:02:00,41.4,36.0,29.91,SE,141,0.0,0.0,81,0.00,,,0.00,0.0,meteohub,2013-12-03 11:02:00,
2013-12-03 06:12:00,41.4,36.0,29.91,SE,141,0.0,0.0,81,0.00,,,0.00,0.0,meteohub,2013-12-03 11:12:00,
2013-12-03 06:22:00,41.2,35.8,29.92,SE,141,0.0,0.0,81,0.00,,,0.00,0.0,meteohub,2013-12-03 11:22:00,
2013-12-03 06:32:00,41.0,36.0,29.92,SE,141,0.0,1.0,82,0.00,,,0.00,0.0,meteohub,2013-12-03 11:32:00,
2013-12-03 06:42:00,40.8,35.8,29.92,SE,141,0.0,1.0,82,0.00,,,0.00,0.0,meteohub,2013-12-03 11:42:00,
2013-12-03 06:52:00,40.8,35.8,29.93,SE,141,0.0,0.0,82,0.00,,,0.00,0.0,meteohub,2013-12-03 11:52:00,
2013-12-03 07:02:00,40.8,35.8,29.94,SE,141,0.0,0.0,82,0.00,,,0.00,0.0,meteohub,2013-12-03 12:02:00,
2013-12-03 07:12:00,41.0,36.0,29.94,SE,141,0.0,1.0,82,0.00,,,0.00,0.0,meteohub,2013-12-03 12:12:00,
2013-12-03 07:22:00,41.2,36.1,29.94,SE,141,0.0,1.0,82,0.00,,,0.00,5.0,meteohub,2013-12-03 12:22:00,
2013-12-03 07:32:00,41.2,36.1,29.94,SE,141,0.0,0.0,82,0.00,,,0.00,16.0,meteohub,2013-12-03 12:32:00,
2013-12-03 07:42:00,41.2,36.1,29.95,SE,141,0.0,1.0,82,0.00,,,0.00,16.0,meteohub,2013-12-03 12:42:00,
2013-12-03 07:52:00,41.2,35.8,29.95,SE,141,0.0,1.0,81,0.00,,,0.00,14.0,meteohub,2013-12-03 12:52:00,
2013-12-03 08:02:00,41.5,36.1,29.96,SE,141,0.0,0.0,81,0.00,,,0.00,18.0,meteohub,2013-12-03 13:02:00,
2013-12-03 08:12:00,41.5,35.8,29.96,SE,141,0.0,0.0,80,0.00,,,0.00,26.0,meteohub,2013-12-03 13:12:00,
2013-12-03 08:22:00,42.1,36.3,29.96,SE,141,0.0,0.0,80,0.00,,,0.00,46.0,meteohub,2013-12-03 13:22:00,
2013-12-03 08:32:00,42.3,36.1,29.96,SE,141,0.0,0.0,79,0.00,,,0.00,33.0,meteohub,2013-12-03 13:32:00,
2013-12-03 08:42:00,42.4,36.3,29.96,SE,141,0.0,0.0,79,0.00,,,0.00,97.0,meteohub,2013-12-03 13:42:00,
2013-12-03 08:52:00,43.3,36.9,29.96,SE,141,0.0,2.0,78,0.00,,,0.00,104.0,meteohub,2013-12-03 13:52:00,
2013-12-03 09:02:00,44.4,37.6,29.96,SE,141,0.0,2.0,77,0.00,,,0.00,127.0,meteohub,2013-12-03 14:02:00,
2013-12-03 09:12:00,45.5,38.1,29.96,SE,141,0.0,0.0,75,0.00,,,0.00,113.0,meteohub,2013-12-03 14:12:00,
2013-12-03 09:22:00,46.0,38.3,29.96,SE,141,0.0,0.0,74,0.00,,,0.00,132.0,meteohub,2013-12-03 14:22:00,
2013-12-03 09:32:00,46.9,38.7,29.96,SE,141,0.0,0.0,73,0.00,,,0.00,153.0,meteohub,2013-12-03 14:32:00,
2013-12-03 09:42:00,47.7,39.0,29.96,SE,141,0.0,0.0,72,0.00,,,0.00,158.0,meteohub,2013-12-03 14:42:00,
2013-12-03 09:52:00,47.8,39.2,29.96,SE,141,2.0,2.0,72,0.00,,,0.00,181.0,meteohub,2013-12-03 14:52:00,
2013-12-03 10:02:00,47.8,38.8,29.96,South,187,0.0,3.0,71,0.00,,,0.00,165.0,meteohub,2013-12-03 15:02:00,
2013-12-03 10:12:00,48.2,39.2,29.97,South,187,0.0,2.0,71,0.00,,,0.00,135.0,meteohub,2013-12-03 15:12:00,
2013-12-03 10:22:00,48.2,38.8,29.96,SSE,157,0.0,2.0,70,0.00,,,0.00,123.0,meteohub,2013-12-03 15:22:00,
2013-12-03 10:32:00,48.4,39.0,29.97,SSE,157,0.0,3.0,70,0.00,,,0.00,127.0,meteohub,2013-12-03 15:32:00,
2013-12-03 10:42:00,48.7,39.0,29.96,SSE,157,0.0,1.0,69,0.00,,,0.00,225.0,meteohub,2013-12-03 15:42:00,
2013-12-03 10:52:00,49.3,39.2,29.96,SSE,157,1.0,2.0,68,0.00,,,0.00,431.0,meteohub,2013-12-03 15:52:00,
2013-12-03 11:02:00,49.5,39.0,29.96,SSW,213,0.0,1.0,67,0.00,,,0.00,239.0,meteohub,2013-12-03 16:02:00,
2013-12-03 11:12:00,49.6,39.2,29.95,WSW,237,1.0,3.0,67,0.00,,,0.00,383.0,meteohub,2013-12-03 16:12:00,
2013-12-03 11:22:00,50.4,39.0,29.95,SE,130,2.0,2.0,65,0.00,,,0.00,410.0,meteohub,2013-12-03 16:22:00,
2013-12-03 11:32:00,51.1,39.4,29.94,SE,142,0.0,3.0,64,0.00,,,0.00,116.0,meteohub,2013-12-03 16:32:00,
2013-12-03 11:42:00,51.3,39.0,29.94,SW,217,0.0,3.0,63,0.00,,,0.00,227.0,meteohub,2013-12-03 16:42:00,
2013-12-03 11:52:00,51.4,39.2,29.94,SW,217,0.0,4.0,63,0.00,,,0.00,188.0,meteohub,2013-12-03 16:52:00,
2013-12-03 12:02:00,52.2,39.2,29.94,SE,146,0.0,3.0,61,0.00,,,0.00,98.0,meteohub,2013-12-03 17:02:00,
2013-12-03 12:12:00,52.5,39.0,29.94,South,188,1.0,3.0,60,0.00,,,0.00,84.0,meteohub,2013-12-03 17:12:00,
2013-12-03 12:22:00,52.9,39.4,29.94,West,266,2.0,5.0,60,0.00,,,0.00,72.0,meteohub,2013-12-03 17:22:00,
2013-12-03 12:32:00,52.9,39.4,29.93,SW,219,0.0,5.0,60,0.00,,,0.00,76.0,meteohub,2013-12-03 17:32:00,
2013-12-03 12:42:00,53.4,39.0,29.93,West,280,0.0,4.0,58,0.00,,,0.00,178.0,meteohub,2013-12-03 17:42:00,
2013-12-03 12:52:00,53.6,38.7,29.93,SSE,150,1.0,3.0,57,0.00,,,0.00,334.0,meteohub,2013-12-03 17:52:00,
2013-12-03 13:02:00,53.4,38.5,29.92,SSW,197,1.0,5.0,57,0.00,,,0.00,95.0,meteohub,2013-12-03 18:02:00,
2013-12-03 13:12:00,54.0,38.7,29.92,SSW,205,0.0,4.0,56,0.00,,,0.00,98.0,meteohub,2013-12-03 18:12:00,
2013-12-03 13:22:00,54.1,38.8,29.93,SW,215,2.0,4.0,56,0.00,,,0.00,70.0,meteohub,2013-12-03 18:22:00,
2013-12-03 13:32:00,55.0,39.2,29.93,SE,144,0.0,3.0,55,0.00,,,0.00,348.0,meteohub,2013-12-03 18:32:00,
2013-12-03 13:42:00,55.6,39.2,29.93,SSW,210,1.0,4.0,54,0.00,,,0.00,190.0,meteohub,2013-12-03 18:42:00,
2013-12-03 13:52:00,55.9,39.0,29.93,SW,234,0.0,4.0,53,0.00,,,0.00,323.0,meteohub,2013-12-03 18:52:00,
2013-12-03 14:02:00,55.9,39.0,29.93,West,259,0.0,5.0,53,0.00,,,0.00,301.0,meteohub,2013-12-03 19:02:00,
2013-12-03 14:12:00,56.8,39.4,29.92,SSE,151,0.0,3.0,52,0.00,,,0.00,290.0,meteohub,2013-12-03 19:12:00,
2013-12-03 14:22:00,57.6,39.0,29.92,NNW,333,2.0,3.0,50,0.00,,,0.00,272.0,meteohub,2013-12-03 19:22:00,
2013-12-03 14:32:00,56.1,38.7,29.91,NNW,348,0.0,5.0,52,0.00,,,0.00,255.0,meteohub,2013-12-03 19:32:00,
2013-12-03 14:42:00,56.8,38.8,29.91,WNW,288,0.0,3.0,51,0.00,,,0.00,220.0,meteohub,2013-12-03 19:42:00,
2013-12-03 14:52:00,57.4,39.4,29.91,South,186,1.0,3.0,51,0.00,,,0.00,169.0,meteohub,2013-12-03 19:52:00,
2013-12-03 15:02:00,56.8,38.8,29.92,SW,223,2.0,3.0,51,0.00,,,0.00,97.0,meteohub,2013-12-03 20:02:00,
2013-12-03 15:12:00,56.8,38.8,29.92,SW,231,0.0,3.0,51,0.00,,,0.00,109.0,meteohub,2013-12-03 20:12:00,
2013-12-03 15:22:00,56.5,39.0,29.93,SW,232,1.0,2.0,52,0.00,,,0.00,102.0,meteohub,2013-12-03 20:22:00,
2013-12-03 15:32:00,56.1,38.7,29.94,WSW,243,3.0,6.0,52,0.00,,,0.00,72.0,meteohub,2013-12-03 20:32:00,
2013-12-03 15:42:00,56.1,38.7,29.95,SW,230,0.0,6.0,52,0.00,,,0.00,60.0,meteohub,2013-12-03 20:42:00,
2013-12-03 15:52:00,56.1,38.7,29.95,SW,232,2.0,4.0,52,0.00,,,0.00,47.0,meteohub,2013-12-03 20:52:00,
2013-12-03 16:02:00,55.9,39.0,29.94,South,185,0.0,4.0,53,0.00,,,0.00,32.0,meteohub,2013-12-03 21:02:00,
2013-12-03 16:12:00,55.6,39.2,29.95,WSW,244,0.0,3.0,54,0.00,,,0.00,21.0,meteohub,2013-12-03 21:12:00,
2013-12-03 16:22:00,55.6,39.7,29.95,SSW,208,0.0,3.0,55,0.00,,,0.00,16.0,meteohub,2013-12-03 21:22:00,
2013-12-03 16:32:00,55.0,39.6,29.95,SSW,208,0.0,1.0,56,0.00,,,0.00,7.0,meteohub,2013-12-03 21:32:00,
2013-12-03 16:42:00,54.5,39.6,29.95,SSW,208,0.0,1.0,57,0.00,,,0.00,0.0,meteohub,2013-12-03 21:42:00,
2013-12-03 16:52:00,54.0,39.6,29.96,SSW,208,0.0,1.0,58,0.00,,,0.00,0.0,meteohub,2013-12-03 21:52:00,
2013-12-03 17:02:00,53.2,39.7,29.96,SSW,208,0.0,0.0,60,0.00,,,0.00,0.0,meteohub,2013-12-03 22:02:00,
2013-12-03 17:12:00,52.7,39.6,29.96,SSW,208,0.0,0.0,61,0.00,,,0.00,0.0,meteohub,2013-12-03 22:12:00,
2013-12-03 17:22:00,52.2,39.6,29.96,SSW,208,0.0,0.0,62,0.00,,,0.00,0.0,meteohub,2013-12-03 22:22:00,
2013-12-03 17:32:00,51.6,39.4,29.96,SSW,208,0.0,1.0,63,0.00,,,0.00,0.0,meteohub,2013-12-03 22:32:00,
2013-12-03 17:42:00,51.3,39.6,29.96,SSW,208,0.0,0.0,64,0.00,,,0.00,0.0,meteohub,2013-12-03 22:42:00,
2013-12-03 17:52:00,50.7,39.4,29.96,SSW,208,0.0,0.0,65,0.00,,,0.00,0.0,meteohub,2013-12-03 22:52:00,
2013-12-03 18:02:00,50.2,38.8,29.96,SSW,208,0.0,0.0,65,0.00,,,0.00,0.0,meteohub,2013-12-03 23:02:00,
2013-12-03 18:12:00,49.6,39.2,29.96,SSW,208,0.0,0.0,67,0.00,,,0.00,0.0,meteohub,2013-12-03 23:12:00,
2013-12-03 18:22:00,49.3,39.2,29.97,SSW,208,0.0,0.0,68,0.00,,,0.00,0.0,meteohub,2013-12-03 23:22:00,
2013-12-03 18:32:00,48.6,38.8,29.97,SSW,208,0.0,0.0,69,0.00,,,0.00,0.0,meteohub,2013-12-03 23:32:00,
2013-12-03 18:42:00,48.0,38.7,29.96,SSW,208,0.0,0.0,70,0.00,,,0.00,0.0,meteohub,2013-12-03 23:42:00,
2013-12-03 18:52:00,47.7,38.7,29.96,SSW,208,0.0,0.0,71,0.00,,,0.00,0.0,meteohub,2013-12-03 23:52:00,
2013-12-03 19:02:00,47.3,38.7,29.97,SSW,208,0.0,0.0,72,0.00,,,0.00,0.0,meteohub,2013-12-04 00:02:00,
2013-12-03 19:12:00,47.3,39.0,29.97,SSW,208,0.0,0.0,73,0.00,,,0.00,0.0,meteohub,2013-12-04 00:12:00,
2013-12-03 19:22:00,46.9,38.7,29.97,SSW,208,0.0,0.0,73,0.00,,,0.00,0.0,meteohub,2013-12-04 00:22:00,
2013-12-03 19:32:00,46.6,38.5,29.97,SSW,208,0.0,0.0,73,0.00,,,0.00,0.0,meteohub,2013-12-04 00:32:00,
2013-12-03 19:42:00,46.2,38.5,29.97,SSW,208,0.0,0.0,74,0.00,,,0.00,0.0,meteohub,2013-12-04 00:42:00,
2013-12-03 19:52:00,46.4,38.5,29.97,SSW,208,0.0,0.0,74,0.00,,,0.00,0.0,meteohub,2013-12-04 00:52:00,
2013-12-03 20:02:00,46.2,38.5,29.98,SSW,208,0.0,0.0,74,0.00,,,0.00,0.0,meteohub,2013-12-04 01:02:00,
2013-12-03 20:12:00,46.0,38.5,29.98,SSW,208,0.0,0.0,75,0.00,,,0.00,0.0,meteohub,2013-12-04 01:12:00,
2013-12-03 20:22:00,46.2,38.7,29.98,SSW,208,0.0,0.0,75,0.00,,,0.00,0.0,meteohub,2013-12-04 01:22:00,
2013-12-03 20:32:00,46.0,38.5,29.99,SSW,208,0.0,0.0,75,0.00,,,0.00,0.0,meteohub,2013-12-04 01:32:00,
2013-12-03 20:42:00,45.5,38.3,29.99,SSW,208,0.0,0.0,76,0.00,,,0.00,0.0,meteohub,2013-12-04 01:42:00,
2013-12-03 20:52:00,44.8,37.9,29.99,SSW,208,0.0,0.0,77,0.00,,,0.00,0.0,meteohub,2013-12-04 01:52:00,
2013-12-03 21:02:00,44.4,38.3,29.99,SSW,208,0.0,0.0,79,0.00,,,0.00,0.0,meteohub,2013-12-04 02:02:00,
2013-12-03 21:12:00,44.2,38.1,29.99,SSW,208,0.0,0.0,79,0.00,,,0.00,0.0,meteohub,2013-12-04 02:12:00,
2013-12-03 21:22:00,44.4,38.3,30.00,SSW,208,0.0,0.0,79,0.00,,,0.00,0.0,meteohub,2013-12-04 02:22:00,
2013-12-03 21:32:00,44.6,38.5,30.00,SSW,208,0.0,0.0,79,0.00,,,0.00,0.0,meteohub,2013-12-04 02:32:00,
2013-12-03 21:42:00,45.0,38.8,30.00,SSW,208,0.0,0.0,79,0.00,,,0.00,0.0,meteohub,2013-12-04 02:42:00,
2013-12-03 21:52:00,46.2,39.4,29.99,SSW,208,0.0,0.0,77,0.00,,,0.00,0.0,meteohub,2013-12-04 02:52:00,
2013-12-03 22:02:00,47.1,39.2,29.99,SSW,208,0.0,1.0,74,0.00,,,0.00,0.0,meteohub,2013-12-04 03:02:00,
2013-12-03 22:12:00,46.9,39.0,29.99,SSW,208,0.0,0.0,74,0.00,,,0.00,0.0,meteohub,2013-12-04 03:12:00,
2013-12-03 22:22:00,47.1,39.2,29.99,SSW,208,0.0,1.0,74,0.00,,,0.00,0.0,meteohub,2013-12-04 03:22:00,
2013-12-03 22:32:00,47.3,39.0,29.99,SSW,208,0.0,1.0,73,0.00,,,0.00,0.0,meteohub,2013-12-04 03:32:00,
2013-12-03 22:42:00,46.9,39.0,29.99,SSW,208,0.0,1.0,74,0.00,,,0.00,0.0,meteohub,2013-12-04 03:42:00,
2013-12-03 22:52:00,46.8,38.8,30.00,SSW,208,0.0,0.0,74,0.00,,,0.00,0.0,meteohub,2013-12-04 03:52:00,
2013-12-03 23:02:00,46.2,38.7,30.00,SSW,208,0.0,0.0,75,0.00,,,0.00,0.0,meteohub,2013-12-04 04:02:00,
2013-12-03 23:12:00,46.0,38.8,29.99,SSW,208,0.0,0.0,76,0.00,,,0.00,0.0,meteohub,2013-12-04 04:12:00,
2013-12-03 23:22:00,46.6,39.0,29.99,SSW,208,0.0,1.0,75,0.00,,,0.00,0.0,meteohub,2013-12-04 04:22:00,
2013-12-03 23:32:00,46.9,39.0,29.99,SSW,208,0.0,1.0,74,0.00,,,0.00,0.0,meteohub,2013-12-04 04:32:00,
2013-12-03 23:42:00,47.1,38.8,30.00,SSW,208,0.0,1.0,73,0.00,,,0.00,0.0,meteohub,2013-12-04 04:42:00,
2013-12-03 23:52:00,47.3,40.1,30.00,SSW,208,0.0,2.0,76,0.00,,,0.00,0.0,meteohub,2013-12-04 04:52:00,